Regional Weather Roundup
Issued by NWS Goodland, KS

Home | Current Version | Previous Version | Text Only | Print | Product List | Glossary On
Versions: 1 2 3 4 5 6 7 8 9 10 11 12 13 14 15 16 17 18 19 20 21 22 23 24 25 26 27 28 29 30 31 32 33 34 35 36 37 38 39 40 41 42 43 44 45 46 47 48 49 50
000
ASUS43 KGLD 091259
RWRGLD

GOODLAND FORECAST AREA HOURLY WEATHER ROUNDUP
NATIONAL WEATHER SERVICE GOODLAND KS
600 AM MST TUE FEB 09 2016

...OFFICIAL OBSERVATIONS...

CITY           SKY/WX    TMP DP  RH WIND       PRES   REMARKS
GOODLAND KS    CLOUDY    25  19  78 NW9       30.22S
HILL CITY KS   CLEAR     27  20  75 CALM      30.24R
IMPERIAL NEB   CLEAR     31  24  75 NW12      30.23R
MCCOOK NEB     CLOUDY    29  18  63 N12       30.25R WCI  19
AKRON CO       CLEAR     29  21  72 W18       30.25R WCI  16
BURLINGTON CO  CLEAR     31  20  63 NW14      30.24R
LIMON CO       CLOUDY    23  16  74 W15       30.31R WCI  10
$$

...UNOFFICIAL OBSERVATIONS...

CITY           SKY/WX    TMP DP  RH WIND       PRES   REMARKS
COLBY KS       PTCLDY    25  25 100 W10       30.23F WCI  15
GOVE KS          N/A     24  32 100 MISG        N/A
LENORA KS        N/A     28  32 100 MISG        N/A
NORTON KS      MOCLDY    28  18  64 NW13      30.23  WCI  18
SHARON SPRINGS   N/A     34  27  74 NW17        N/A
KIT CARSON CO    N/A     28  21  74 MISG        N/A
YUMA CO          N/A     28  22  78 NW15        N/A  WCI  16
$$



USA.gov is the U.S. government's official web portal to all federal, state and local government web resources and services.